NOAA 17 DEB

Satellite information

Favourite Embed

Satellite Type and Status

DEBRISIN ORBIT

Key statistics

Satellite NOAA 17 DEB at a glance.

Uptime

8414

Days in orbit

Revolutions

≈ 14.7

Per day

Orbit

SSO

Sun Synchronous Orbit

Inclination

98.8

Latest

Satellite identification and parameters

Extended collection of information and parameters for NOAA 17 DEB.

Object identification

Identified? True

Debris? True

Object name: NOAA 17 DEB

International designator: 2002-032AQ

Object number (NORAD): 48707

Object ID (CCSDS): 48707

Country: UNITED STATES OF AMERICA (US)

Current information (Y/N): Y

RCS size: SMALL

Orbital parameters

Period: 97.937 minutes

Inclination: 98.796 deg

SMA: 7038.13 km

Apoapsis: 687.812 km

Periapsis: 632.178 km

RAAN: 222.4969 deg

Eccentricy: 0.0039523

Argument of periapsis: 302.1575 deg

Mean anomaly: 57.5797 deg

Mean motion: 14.70336873 rev/day

Mean motion (dot): 0.00007336 rev/day2

B* drag term: 0.0012081 1/REarth

Two-line elements (TLE)

Creation date: July 6, 2025, 2:46 p.m.

Reference frame: TEME

Reference center: EARTH

Epoch: July 6, 2025, 1:20 p.m. UTC

TLE line 0: 0 NOAA 17 DEB

TLE line 1: 1 48707U 02032AQ 25187.55614024 .00007336 00000-0 12081-2 0 9996

TLE line 2: 2 48707 98.7960 222.4969 0039523 302.1575 57.5797 14.70336873227920

Live tracking on map

Real-time ground track for satellite NOAA 17 DEB.

In-orbit conjunctions

A list of the most updated potential collisions computed for object NOAA 17 DEB.

Target Orbit TCA Probability of collision Miss distance Type
PARASOL SSO 2025-02-02 09:53:07 0.0001044954 495.0 (m) PAYLOAD
COSMOS 2251 DEB LEO 2024-11-14 13:37:08 0.000153837 923.0 (m) DEBRIS

Associated space launch

NOAA M carried weather imagers and microwave and infrared sounders, as well as a SARSAT search-and-rescue package. It had an on-orbit mass of 1475 kg.

NOAA 17 DEB was lifted into orbit during the mission ‘Titan II SLV | NOAA 17’, on board a Titan II SLV space rocket.

The launch took place on June 24, 2002, 6:23 p.m. from Space Launch Complex 4W.

For more information about the launch, click the button.

Launch to space Titan II SLV | NOAA 17
Titan II SLV | NOAA 17

Agency: N/A

Status: Launch Successful

Launch date: June 24, 2002, 6:23 p.m. UTC

Rocket: Titan II SLV

Launch pad: Space Launch Complex 4W

Location: Vandenberg SFB, CA, USA

...

Latest news about this satellite

There are no fresh news available about this satellite. Check back as we update our databases every day.


Newsletter sign-up

Weekly statistics, charts and insights to help you stay on top of the space industry.